ORSTED

Last updated on Fri Oct 16 2020 05:50:45 GMT+0000 (Coordinated Universal Time)

1 25635U 99008B 20289.85893247 .00000110 00000-0 34003-4 0 9990 2 25635 96.4475 285.7713 0137769 326.9255 32.3382 14.48228756142045
UTC large
Height (km)
Speed (km/s)
/
Latitude / Longitude
Inclination (degrees)
Orbital Period (minutes)
Azimuth
Elevation
Range (km)
Doppler Factor

Next 0 passes for location: London (51.5072 / 0.1276)

Sorry there are no passes over London.
ORSTED